EZY83NP LFMT-EGKK

Flight info

Callsign EZY83NP
Flight time 1h 34m
Altitude 36000
Route NG DCT MOLEN DCT MTL DCT ETREK DCT MADOT DCT MOPEM DCT CACHI DCT AVLON DCT OKRIX DCT BRY DCT CLM DCT KOPOR DCT KESAX DCT KUNAV
Aircraft A320/M-SDE2E3FGHIRWXY/LB1

Departure

Time 2026-05-08 14:47
Airport Montpellier-Méditerranée Airport (LFMT)

Arrival

Time 2026-05-08 16:21
Airport London Gatwick Airport (EGKK)
Time Latitude Longitude Altitude Speed Heading
2026-05-08 13:50 43.57972 3.95942 21 ft 0 kts 207°
2026-05-08 14:03 43.57973 3.95942 21 ft 0 kts 207°
2026-05-08 14:24 43.57973 3.95943 21 ft 0 kts 207°
2026-05-08 14:36 43.57974 3.95944 21 ft 2 kts 207°
2026-05-08 14:37 43.57997 3.95960 23 ft 4 kts 206°
2026-05-08 14:37 43.58013 3.95971 22 ft 0 kts 206°
2026-05-08 14:43 43.58014 3.95960 20 ft 1 kts 293°
2026-05-08 14:43 43.58028 3.95946 21 ft 5 kts 320°
2026-05-08 14:43 43.58068 3.95886 19 ft 12 kts 302°
2026-05-08 14:43 43.58112 3.95798 19 ft 10 kts 306°
2026-05-08 14:44 43.58170 3.95767 18 ft 9 kts 10°
2026-05-08 14:44 43.58222 3.95817 18 ft 11 kts 33°
2026-05-08 14:44 43.58297 3.95790 16 ft 14 kts 312°
2026-05-08 14:44 43.58353 3.95678 16 ft 13 kts 303°
2026-05-08 14:45 43.58399 3.95589 17 ft 10 kts 306°
2026-05-08 14:45 43.58448 3.95513 17 ft 12 kts 328°
2026-05-08 14:45 43.58526 3.95513 17 ft 11 kts 27°
2026-05-08 14:45 43.58581 3.95580 16 ft 10 kts 69°
2026-05-08 14:46 43.58562 3.95668 17 ft 11 kts 122°
2026-05-08 14:46 43.58437 3.95917 14 ft 66 kts 125°
2026-05-08 14:46 43.58050 3.96682 22 ft 127 kts 125°
2026-05-08 14:46 43.57458 3.97862 148 ft 162 kts 125°
2026-05-08 14:47 43.56822 3.99156 776 ft 165 kts 120°
2026-05-08 14:47 43.56493 4.00664 1466 ft 175 kts 97°
2026-05-08 14:47 43.56711 4.02423 1843 ft 200 kts 66°
2026-05-08 14:47 43.57637 4.03999 2241 ft 223 kts 37°
2026-05-08 14:48 43.59162 4.04865 2518 ft 252 kts 16°
2026-05-08 14:48 43.60905 4.05556 2899 ft 274 kts 17°
2026-05-08 14:48 43.62737 4.06327 2984 ft 276 kts 19°
2026-05-08 14:48 43.64410 4.07592 2989 ft 270 kts 44°
2026-05-08 14:49 43.65669 4.09470 3006 ft 273 kts 50°
2026-05-08 14:49 43.66949 4.11456 3744 ft 276 kts 50°
2026-05-08 14:49 43.68225 4.13437 4712 ft 277 kts 50°
2026-05-08 14:49 43.69516 4.15442 5546 ft 281 kts 50°
2026-05-08 14:50 43.70823 4.17472 6406 ft 283 kts 50°
2026-05-08 14:50 43.72142 4.19516 7196 ft 286 kts 50°
2026-05-08 14:50 43.73476 4.21584 7997 ft 290 kts 50°
2026-05-08 14:50 43.74824 4.23671 8811 ft 292 kts 50°
2026-05-08 14:51 43.76187 4.25779 9615 ft 295 kts 51°
2026-05-08 14:51 43.77561 4.27910 10354 ft 299 kts 50°
2026-05-08 14:51 43.78993 4.30143 10614 ft 322 kts 50°
2026-05-08 14:51 43.80522 4.32536 10923 ft 339 kts 50°
2026-05-08 14:52 43.82097 4.34995 11603 ft 343 kts 50°
2026-05-08 14:52 43.85466 4.39780 12981 ft 353 kts 37°
2026-05-08 14:52 43.87569 4.41565 13689 ft 357 kts 25°
2026-05-08 14:53 43.89890 4.42864 14270 ft 362 kts 21°
2026-05-08 14:53 43.92245 4.44122 14926 ft 363 kts 21°
2026-05-08 14:53 43.94617 4.45393 15497 ft 368 kts 21°
2026-05-08 14:53 43.97015 4.46682 16092 ft 371 kts 21°
2026-05-08 14:54 43.99428 4.47984 16707 ft 374 kts 21°
2026-05-08 14:54 44.01042 4.48855 17059 ft 377 kts 21°
2026-05-08 14:54 44.03493 4.50178 17663 ft 380 kts 21°
2026-05-08 14:54 44.05966 4.51512 18249 ft 383 kts 21°
2026-05-08 14:55 44.08470 4.52852 18736 ft 387 kts 21°
2026-05-08 14:55 44.11816 4.54626 19429 ft 390 kts 20°
2026-05-08 14:55 44.14367 4.55974 19929 ft 393 kts 20°
2026-05-08 14:55 44.16922 4.57326 20501 ft 395 kts 19°
2026-05-08 14:56 44.18660 4.58245 20868 ft 396 kts 19°
2026-05-08 14:56 44.21237 4.59612 21438 ft 396 kts 19°
2026-05-08 14:56 44.23817 4.60987 22002 ft 398 kts 19°
2026-05-08 14:56 44.26410 4.62369 22542 ft 400 kts 19°
2026-05-08 14:57 44.29013 4.63758 23079 ft 402 kts 19°
2026-05-08 14:57 44.31631 4.65155 23580 ft 404 kts 19°
2026-05-08 14:57 44.34263 4.66559 24009 ft 405 kts 19°
2026-05-08 14:57 44.36903 4.67971 24414 ft 407 kts 19°
2026-05-08 14:58 44.39524 4.69379 24779 ft 410 kts 19°
2026-05-08 14:58 44.42198 4.70820 25130 ft 413 kts 19°
2026-05-08 14:58 44.44927 4.72292 25485 ft 416 kts 18°
2026-05-08 14:58 44.47640 4.73752 25827 ft 419 kts 18°
2026-05-08 14:59 44.50328 4.75198 26154 ft 422 kts 18°
2026-05-08 14:59 44.55997 4.77168 26869 ft 420 kts
2026-05-08 14:59 44.58907 4.77182 27198 ft 418 kts 352°
2026-05-08 15:00 44.61785 4.76609 27505 ft 419 kts 348°
2026-05-08 15:00 44.64671 4.75955 27827 ft 421 kts 347°
2026-05-08 15:00 44.67575 4.75304 28143 ft 424 kts 347°
2026-05-08 15:00 44.70494 4.74658 28474 ft 425 kts 347°
2026-05-08 15:01 44.73428 4.74010 28789 ft 428 kts 347°
2026-05-08 15:01 44.76374 4.73356 29110 ft 430 kts 347°
2026-05-08 15:01 44.79337 4.72699 29396 ft 432 kts 347°
2026-05-08 15:01 44.82308 4.72040 29686 ft 434 kts 347°
2026-05-08 15:02 44.85301 4.71370 29980 ft 436 kts 347°
2026-05-08 15:02 44.88306 4.70692 30235 ft 438 kts 346°
2026-05-08 15:02 44.91324 4.70011 30503 ft 439 kts 347°
2026-05-08 15:02 44.94343 4.69336 30797 ft 439 kts 347°
2026-05-08 15:03 44.97364 4.68666 31075 ft 439 kts 347°
2026-05-08 15:03 45.00380 4.67995 31389 ft 438 kts 346°
2026-05-08 15:03 45.03392 4.67319 31696 ft 438 kts 346°
2026-05-08 15:03 45.06401 4.66644 31992 ft 438 kts 346°
2026-05-08 15:04 45.09409 4.65971 32286 ft 437 kts 346°
2026-05-08 15:04 45.12409 4.65300 32641 ft 436 kts 346°
2026-05-08 15:04 45.15358 4.64639 32962 ft 434 kts 346°
2026-05-08 15:04 45.18341 4.63970 33266 ft 434 kts 346°
2026-05-08 15:05 45.21320 4.63294 33572 ft 433 kts 345°
2026-05-08 15:05 45.24297 4.62613 33829 ft 434 kts 345°
2026-05-08 15:05 45.27276 4.61928 34040 ft 435 kts 345°
2026-05-08 15:05 45.30272 4.61237 34265 ft 436 kts 345°
2026-05-08 15:06 45.33258 4.60553 34541 ft 434 kts 346°
2026-05-08 15:06 45.36234 4.59873 34799 ft 432 kts 345°
2026-05-08 15:06 45.39202 4.59194 35008 ft 432 kts 345°
2026-05-08 15:06 45.42164 4.58515 35221 ft 431 kts 345°
2026-05-08 15:07 45.45113 4.57838 35423 ft 431 kts 345°
2026-05-08 15:07 45.48076 4.57158 35623 ft 431 kts 345°
2026-05-08 15:07 45.51032 4.56481 35856 ft 430 kts 345°
2026-05-08 15:07 45.53986 4.55804 35960 ft 428 kts 345°
2026-05-08 15:08 45.58848 4.54686 35975 ft 425 kts 345°
2026-05-08 15:08 45.65660 4.53104 35973 ft 424 kts 345°
2026-05-08 15:09 45.71477 4.51752 35980 ft 422 kts 346°
2026-05-08 15:09 45.77273 4.50419 35984 ft 421 kts 346°
2026-05-08 15:10 45.83052 4.49073 35982 ft 421 kts 345°
2026-05-08 15:10 45.88838 4.47707 36007 ft 421 kts 346°
2026-05-08 15:11 45.94614 4.46361 36007 ft 420 kts 346°
2026-05-08 15:11 46.00375 4.45012 36005 ft 419 kts 346°
2026-05-08 15:12 46.06089 4.43672 35995 ft 419 kts 346°
2026-05-08 15:12 46.11841 4.42324 36007 ft 418 kts 346°
2026-05-08 15:13 46.17576 4.40969 36004 ft 418 kts 346°
2026-05-08 15:13 46.23315 4.39608 36002 ft 418 kts 346°
2026-05-08 15:14 46.29047 4.38232 36010 ft 417 kts 344°
2026-05-08 15:14 46.34689 4.36417 35999 ft 414 kts 341°
2026-05-08 15:15 46.40265 4.34327 35996 ft 414 kts 340°
2026-05-08 15:15 46.45849 4.32272 35992 ft 414 kts 341°
2026-05-08 15:16 46.51450 4.30294 35997 ft 414 kts 342°
2026-05-08 15:16 46.57058 4.28344 35984 ft 415 kts 341°
2026-05-08 15:17 46.62670 4.26379 35973 ft 415 kts 341°
2026-05-08 15:17 46.68291 4.24389 35973 ft 416 kts 341°
2026-05-08 15:18 46.73920 4.22396 35974 ft 416 kts 341°
2026-05-08 15:18 46.79558 4.20392 35973 ft 416 kts 341°
2026-05-08 15:19 46.85182 4.18375 35977 ft 417 kts 341°
2026-05-08 15:19 46.90824 4.16350 36000 ft 417 kts 341°
2026-05-08 15:20 46.96455 4.14332 36001 ft 417 kts 341°
2026-05-08 15:20 47.02087 4.12317 35999 ft 417 kts 341°
2026-05-08 15:21 47.07662 4.10090 36003 ft 412 kts 334°
2026-05-08 15:21 47.12945 4.06974 36006 ft 412 kts 334°
2026-05-08 15:22 47.18264 4.03828 36002 ft 412 kts 334°
2026-05-08 15:22 47.23578 4.00680 36006 ft 412 kts 334°
2026-05-08 15:23 47.28899 3.97525 36002 ft 412 kts 334°
2026-05-08 15:23 47.34215 3.94367 36029 ft 412 kts 334°
2026-05-08 15:24 47.39528 3.91198 36024 ft 411 kts 334°
2026-05-08 15:24 47.44828 3.88023 36013 ft 411 kts 334°
2026-05-08 15:25 47.50124 3.84858 36010 ft 410 kts 334°
2026-05-08 15:25 47.55418 3.81688 36033 ft 410 kts 334°
2026-05-08 15:26 47.60703 3.78512 36028 ft 409 kts 334°
2026-05-08 15:26 47.65976 3.75332 36022 ft 409 kts 334°
2026-05-08 15:27 47.71239 3.72153 36021 ft 409 kts 334°
2026-05-08 15:27 47.76506 3.68970 36036 ft 409 kts 334°
2026-05-08 15:28 47.81773 3.65786 36028 ft 408 kts 334°
2026-05-08 15:28 47.86998 3.62612 36028 ft 408 kts 334°
2026-05-08 15:29 47.92253 3.59408 36031 ft 408 kts 334°
2026-05-08 15:29 47.97507 3.56201 36045 ft 408 kts 334°
2026-05-08 15:30 48.02754 3.52983 36037 ft 408 kts 333°
2026-05-08 15:30 48.07998 3.49753 36031 ft 408 kts 333°
2026-05-08 15:31 48.13244 3.46526 36032 ft 408 kts 333°
2026-05-08 15:31 48.18489 3.43289 36042 ft 408 kts 333°
2026-05-08 15:32 48.23732 3.40040 36026 ft 408 kts 334°
2026-05-08 15:32 48.28976 3.36786 36027 ft 408 kts 334°
2026-05-08 15:33 48.34217 3.33524 36033 ft 408 kts 334°
2026-05-08 15:33 48.39458 3.30260 36060 ft 408 kts 334°
2026-05-08 15:34 48.44693 3.26968 36049 ft 408 kts 333°
2026-05-08 15:34 48.49919 3.23620 36045 ft 408 kts 333°
2026-05-08 15:35 48.55135 3.20270 36045 ft 408 kts 333°
2026-05-08 15:35 48.60352 3.16926 36044 ft 408 kts 333°
2026-05-08 15:36 48.64697 3.14141 36060 ft 408 kts 333°
2026-05-08 15:36 48.70771 3.10230 36048 ft 408 kts 333°
2026-05-08 15:37 48.75998 3.06864 36042 ft 408 kts 333°
2026-05-08 15:37 48.81221 3.03483 36040 ft 408 kts 333°
2026-05-08 15:38 48.86319 2.99782 36046 ft 404 kts 327°
2026-05-08 15:38 48.91193 2.95531 36049 ft 404 kts 327°
2026-05-08 15:39 48.96062 2.91257 36052 ft 404 kts 327°
2026-05-08 15:39 49.00930 2.86985 36049 ft 404 kts 327°
2026-05-08 15:40 49.05790 2.82719 36074 ft 403 kts 327°
2026-05-08 15:40 49.10655 2.78440 36066 ft 404 kts 327°
2026-05-08 15:41 49.15519 2.74137 36059 ft 404 kts 327°
2026-05-08 15:41 49.20378 2.69826 36057 ft 404 kts 327°
2026-05-08 15:42 49.25247 2.65512 36039 ft 404 kts 327°
2026-05-08 15:42 49.30111 2.61195 36056 ft 404 kts 327°
2026-05-08 15:43 49.34970 2.56877 36059 ft 404 kts 327°
2026-05-08 15:43 49.39827 2.52550 36060 ft 404 kts 327°
2026-05-08 15:44 49.44676 2.48201 36061 ft 403 kts 327°
2026-05-08 15:44 49.48699 2.44580 36060 ft 403 kts 327°
2026-05-08 15:45 49.53280 2.39689 36070 ft 400 kts 317°
2026-05-08 15:45 49.57499 2.34087 36060 ft 400 kts 317°
2026-05-08 15:46 49.61714 2.28486 36059 ft 400 kts 318°
2026-05-08 15:46 49.65920 2.22892 36044 ft 400 kts 317°
2026-05-08 15:47 49.70138 2.17279 36041 ft 400 kts 318°
2026-05-08 15:47 49.74348 2.11649 36054 ft 400 kts 317°
2026-05-08 15:48 49.80659 2.03175 35996 ft 402 kts 317°
2026-05-08 15:48 49.82768 2.00337 35736 ft 400 kts 317°
2026-05-08 15:49 49.84853 1.97529 35485 ft 394 kts 318°
2026-05-08 15:49 49.86907 1.94763 35051 ft 389 kts 318°
2026-05-08 15:49 49.88937 1.92030 34591 ft 385 kts 318°
2026-05-08 15:49 49.90948 1.89320 34129 ft 381 kts 318°
2026-05-08 15:50 49.92913 1.86664 33630 ft 377 kts 318°
2026-05-08 15:50 49.94906 1.83964 33177 ft 372 kts 318°
2026-05-08 15:50 49.96811 1.81375 32746 ft 368 kts 318°
2026-05-08 15:50 49.98724 1.78773 32306 ft 363 kts 318°
2026-05-08 15:51 50.00615 1.76205 31878 ft 359 kts 318°
2026-05-08 15:51 50.02487 1.73659 31454 ft 355 kts 318°
2026-05-08 15:51 50.04337 1.71142 31042 ft 352 kts 318°
2026-05-08 15:51 50.06177 1.68646 30617 ft 349 kts 319°
2026-05-08 15:52 50.08004 1.66170 30166 ft 347 kts 319°
2026-05-08 15:52 50.09823 1.63713 29724 ft 344 kts 319°
2026-05-08 15:52 50.11622 1.61281 29317 ft 340 kts 319°
2026-05-08 15:52 50.13395 1.58878 28920 ft 336 kts 319°
2026-05-08 15:53 50.15144 1.56502 28547 ft 332 kts 319°
2026-05-08 15:53 50.16870 1.54154 28170 ft 327 kts 319°
2026-05-08 15:53 50.18574 1.51839 27807 ft 323 kts 319°
2026-05-08 15:53 50.20257 1.49555 27431 ft 319 kts 319°
2026-05-08 15:54 50.21929 1.47276 27063 ft 318 kts 319°
2026-05-08 15:54 50.23586 1.45009 26699 ft 317 kts 319°
2026-05-08 15:54 50.25242 1.42745 26326 ft 315 kts 319°
2026-05-08 15:54 50.26890 1.40494 25955 ft 314 kts 319°
2026-05-08 15:55 50.28533 1.38246 25571 ft 313 kts 319°
2026-05-08 15:55 50.31798 1.33770 24809 ft 311 kts 319°
2026-05-08 15:55 50.33421 1.31545 24417 ft 309 kts 319°
2026-05-08 15:56 50.35034 1.29330 24020 ft 308 kts 319°
2026-05-08 15:56 50.36643 1.27116 23628 ft 307 kts 319°
2026-05-08 15:56 50.38244 1.24914 23200 ft 306 kts 319°
2026-05-08 15:56 50.39841 1.22714 22811 ft 305 kts 319°
2026-05-08 15:57 50.41434 1.20514 22438 ft 305 kts 319°
2026-05-08 15:57 50.43031 1.18310 22062 ft 306 kts 319°
2026-05-08 15:57 50.44632 1.16101 21680 ft 306 kts 319°
2026-05-08 15:57 50.46232 1.13888 21307 ft 306 kts 318°
2026-05-08 15:58 50.47827 1.11670 20932 ft 306 kts 318°
2026-05-08 15:58 50.49418 1.09449 20566 ft 306 kts 318°
2026-05-08 15:58 50.51008 1.07231 20201 ft 306 kts 318°
2026-05-08 15:58 50.52504 1.04857 19835 ft 306 kts 312°
2026-05-08 15:59 50.53950 1.02413 19469 ft 305 kts 312°
2026-05-08 15:59 50.55397 0.99973 19104 ft 305 kts 311°
2026-05-08 15:59 50.56847 0.97534 18738 ft 306 kts 311°
2026-05-08 15:59 50.58303 0.95086 18369 ft 307 kts 311°
2026-05-08 16:00 50.59765 0.92622 17970 ft 308 kts 311°
2026-05-08 16:00 50.61208 0.90185 17608 ft 308 kts 311°
2026-05-08 16:00 50.62667 0.87716 17237 ft 307 kts 311°
2026-05-08 16:00 50.64117 0.85255 16886 ft 306 kts 311°
2026-05-08 16:01 50.65567 0.82796 16533 ft 306 kts 311°
2026-05-08 16:01 50.67012 0.80347 16179 ft 306 kts 311°
2026-05-08 16:01 50.68475 0.77759 16064 ft 317 kts 309°
2026-05-08 16:01 50.69876 0.75094 15612 ft 322 kts 307°
2026-05-08 16:02 50.71276 0.72324 15083 ft 322 kts 307°
2026-05-08 16:02 50.72661 0.69547 14568 ft 321 kts 307°
2026-05-08 16:02 50.74042 0.66776 13967 ft 323 kts 307°
2026-05-08 16:02 50.75452 0.63962 13166 ft 328 kts 307°
2026-05-08 16:03 50.76864 0.61164 12590 ft 323 kts 307°
2026-05-08 16:03 50.78252 0.58424 12090 ft 316 kts 307°
2026-05-08 16:03 50.79610 0.55749 11590 ft 310 kts 307°
2026-05-08 16:03 50.80944 0.53121 11177 ft 301 kts 307°
2026-05-08 16:04 50.82237 0.50576 10736 ft 295 kts 307°
2026-05-08 16:04 50.83520 0.48047 10211 ft 292 kts 307°
2026-05-08 16:04 50.84783 0.45555 9692 ft 289 kts 306°
2026-05-08 16:04 50.86032 0.43087 9213 ft 286 kts 306°
2026-05-08 16:05 50.87266 0.40643 8759 ft 283 kts 306°
2026-05-08 16:05 50.88494 0.38210 8302 ft 281 kts 306°
2026-05-08 16:05 50.89704 0.35815 8085 ft 279 kts 307°
2026-05-08 16:05 50.90858 0.33354 8081 ft 278 kts 296°
2026-05-08 16:06 50.91583 0.30554 7815 ft 274 kts 287°
2026-05-08 16:06 50.92182 0.27697 7418 ft 272 kts 287°
2026-05-08 16:06 50.92751 0.24880 7236 ft 262 kts 286°
2026-05-08 16:06 50.93300 0.22188 7085 ft 252 kts 287°
2026-05-08 16:07 50.93838 0.19564 6778 ft 249 kts 287°
2026-05-08 16:07 50.94362 0.16959 6410 ft 248 kts 287°
2026-05-08 16:07 50.94873 0.14362 6051 ft 246 kts 286°
2026-05-08 16:07 50.95380 0.11759 6005 ft 248 kts 286°
2026-05-08 16:08 50.95889 0.09133 6004 ft 249 kts 286°
2026-05-08 16:08 50.96394 0.06504 6005 ft 249 kts 286°
2026-05-08 16:08 50.96897 0.03887 5799 ft 247 kts 286°
2026-05-08 16:08 50.97399 0.01275 5391 ft 248 kts 287°
2026-05-08 16:09 50.97894 -0.01336 5054 ft 246 kts 286°
2026-05-08 16:09 50.98226 -0.03040 4997 ft 246 kts 286°
2026-05-08 16:09 50.98922 -0.06519 5011 ft 249 kts 285°
2026-05-08 16:09 50.99464 -0.09123 5007 ft 249 kts 286°
2026-05-08 16:10 51.00004 -0.11737 5007 ft 249 kts 286°
2026-05-08 16:10 51.00463 -0.14381 5007 ft 247 kts 275°
2026-05-08 16:10 51.00504 -0.17063 5010 ft 246 kts 267°
2026-05-08 16:10 51.00454 -0.19778 5009 ft 246 kts 266°
2026-05-08 16:11 51.00391 -0.22526 4976 ft 245 kts 266°
2026-05-08 16:11 51.00333 -0.25181 4814 ft 235 kts 265°
2026-05-08 16:11 51.00284 -0.27714 4684 ft 225 kts 266°
2026-05-08 16:11 51.00233 -0.30120 4537 ft 217 kts 266°
2026-05-08 16:12 51.00194 -0.32500 4278 ft 215 kts 266°
2026-05-08 16:12 51.00164 -0.34880 4032 ft 215 kts 266°
2026-05-08 16:12 51.00139 -0.37264 4008 ft 217 kts 266°
2026-05-08 16:12 51.00109 -0.39658 4007 ft 217 kts 266°
2026-05-08 16:13 51.00069 -0.42057 4004 ft 217 kts 266°
2026-05-08 16:13 51.00030 -0.44449 4008 ft 217 kts 267°
2026-05-08 16:13 51.00072 -0.46842 4000 ft 219 kts 282°
2026-05-08 16:13 51.00753 -0.48971 4013 ft 219 kts 306°
2026-05-08 16:14 51.01738 -0.50837 4009 ft 221 kts 310°
2026-05-08 16:14 51.02754 -0.52634 4003 ft 212 kts 311°
2026-05-08 16:14 51.03710 -0.54309 4032 ft 201 kts 311°
2026-05-08 16:14 51.04831 -0.55573 3989 ft 200 kts 345°
2026-05-08 16:15 51.06193 -0.55518 3979 ft 195 kts 23°
2026-05-08 16:15 51.07277 -0.54323 3695 ft 190 kts 47°
2026-05-08 16:15 51.08188 -0.52812 3411 ft 188 kts 50°
2026-05-08 16:15 51.09073 -0.51294 3151 ft 186 kts 51°
2026-05-08 16:16 51.09949 -0.49786 3018 ft 186 kts 52°
2026-05-08 16:16 51.10710 -0.48137 3002 ft 184 kts 71°
2026-05-08 16:16 51.11028 -0.46196 3003 ft 182 kts 80°
2026-05-08 16:16 51.11303 -0.44221 3011 ft 182 kts 81°
2026-05-08 16:17 51.11578 -0.42263 2894 ft 179 kts 79°
2026-05-08 16:17 51.11756 -0.40996 2767 ft 175 kts 80°
2026-05-08 16:17 51.12098 -0.38555 2495 ft 164 kts 81°
2026-05-08 16:17 51.12345 -0.36793 2280 ft 162 kts 82°
2026-05-08 16:18 51.12586 -0.35065 2066 ft 159 kts 81°
2026-05-08 16:18 51.12825 -0.33352 1848 ft 159 kts 83°
2026-05-08 16:18 51.13064 -0.31638 1637 ft 159 kts 79°
2026-05-08 16:18 51.13301 -0.29940 1419 ft 157 kts 81°
2026-05-08 16:19 51.13532 -0.28282 1233 ft 146 kts 81°
2026-05-08 16:19 51.13745 -0.26752 1003 ft 139 kts 81°
2026-05-08 16:19 51.13954 -0.25247 818 ft 139 kts 79°
2026-05-08 16:19 51.14163 -0.23740 633 ft 140 kts 80°
2026-05-08 16:20 51.14376 -0.22234 429 ft 140 kts 79°
2026-05-08 16:20 51.14584 -0.20720 259 ft 139 kts 79°
2026-05-08 16:20 51.14776 -0.19297 212 ft 116 kts 75°
2026-05-08 16:20 51.14920 -0.18265 211 ft 66 kts 77°
2026-05-08 16:21 51.15010 -0.17910 212 ft 21 kts 50°
2026-05-08 16:21 51.15072 -0.17771 207 ft 10 kts 46°
2026-05-08 16:21 51.15132 -0.17761 205 ft 8 kts 351°
2026-05-08 16:21 51.15176 -0.17729 213 ft 7 kts 64°
2026-05-08 16:22 51.15189 -0.17660 215 ft 6 kts 76°
2026-05-08 16:22 51.15200 -0.17578 209 ft 10 kts 77°
2026-05-08 16:22 51.15216 -0.17459 216 ft 9 kts 78°
2026-05-08 16:22 51.15220 -0.17434 210 ft 0 kts 79°
2026-05-08 16:23 51.15222 -0.17414 208 ft 3 kts 78°
2026-05-08 16:24 51.15230 -0.17372 205 ft 7 kts 63°
2026-05-08 16:24 51.15289 -0.17351 205 ft 12 kts 345°
2026-05-08 16:24 51.15370 -0.17380 205 ft 11 kts 348°
2026-05-08 16:24 51.15442 -0.17405 214 ft 10 kts 348°
2026-05-08 16:25 51.15508 -0.17428 216 ft 11 kts 347°
2026-05-08 16:25 51.15596 -0.17460 212 ft 15 kts 348°
2026-05-08 16:25 51.15703 -0.17496 211 ft 11 kts 347°
2026-05-08 16:25 51.15765 -0.17468 205 ft 9 kts 63°
2026-05-08 16:26 51.15780 -0.17378 213 ft 8 kts 77°
2026-05-08 16:26 51.15791 -0.17301 205 ft 6 kts 77°
2026-05-08 16:26 51.15807 -0.17181 215 ft 13 kts 78°
2026-05-08 16:26 51.15836 -0.17090 205 ft 8 kts 24°
2026-05-08 16:27 51.15888 -0.17097 210 ft 7 kts 327°
2026-05-08 16:27 51.15922 -0.17145 214 ft 6 kts 316°
2026-05-08 16:27 51.15932 -0.17160 205 ft 0 kts 315°